Weather History for New Philadelphia, OH

Change the Weather History Date:

Wednesday, November 21, 2012

  Actual Average Record
Temperature  
Mean Temperature 44 °F 41 °F  
Max Temperature 60 °F 50 °F 69 °F (1979)
Min Temperature 28 °F 32 °F 10 °F (2014)
Degree Days  
Heating Degree Days 21 24  
Month to date heating degree days 506 428  
Since 1 July heating degree days 1018 927  
Cooling Degree Days 0 0  
Month to date cooling degree days 0 0  
Year to date cooling degree days 981 697  
Moisture  
Dew Point 31 °F    
Average Humidity 64    
Maximum Humidity 96    
Minimum Humidity 32    
Precipitation  
Precipitation 0.00 in 0.12 in 0.48 in (1986)
Month to date precipitation 0.59 2.21  
Year to date precipitation 28.30 35.17  
Sea Level Pressure  
Sea Level Pressure 30.23 in    
Wind  
Wind Speed 0 mph (NNW)    
Max Wind Speed 7 mph    
Max Gust Speed 9 mph    
Visibility 8 miles    
Events      
T = Trace of Precipitation, MM = Missing Value Source: NWS Daily Summary

Daily Weather History Graph

Daily Weather History Graph

Search for Another Location

Airport:

Trip Planner

Search our weather history database for the weather conditions in past years. The results will help you decide how hot, cold, wet, or windy it might be!

Date:

Astronomy

Nov. 21, 2012 Rise Set
Actual Time 7:19 AM EST 5:03 PM EST
Civil Twilight 6:49 AM EST 5:33 PM EST
Nautical Twilight 6:16 AM EST 6:06 PM EST
Astronomical Twilight 5:43 AM EST 6:39 PM EST
Moon 1:20 PM EST (11/21) 12:35 AM EST (11/21)
Length of Visible Light 10h 43m
Length of Day
9h 44m
First Quarter, 61% of the Moon is Illuminated
Nov 21
First Quarter
Nov 28
Full
Dec 6
Last Quarter
Dec 13
New
Dec 20
First Quarter

Hourly Weather History & Observations

Time (EST) Temp. Dew Point Humidity Pressure Visibility Wind Dir Wind Speed Gust Speed Precip Events Conditions
12:53 AM 34.0 °F 32.0 °F 92% 30.16 in 10.0 mi Calm Calm - N/A   Overcast
1:53 AM 34.0 °F 30.9 °F 89% 30.17 in 7.0 mi Calm Calm - N/A   Clear
2:53 AM 30.9 °F 28.9 °F 92% 30.18 in 8.0 mi Calm Calm - N/A   Clear
3:53 AM 30.9 °F 28.9 °F 92% 30.19 in 5.0 mi Calm Calm - N/A   Clear
4:53 AM 30.0 °F 28.9 °F 96% 30.20 in 6.0 mi Calm Calm - N/A   Clear
5:53 AM 28.9 °F 26.1 °F 89% 30.22 in 7.0 mi Calm Calm - N/A   Clear
6:53 AM 30.0 °F 27.0 °F 88% 30.24 in 9.0 mi Calm Calm - N/A   Clear
7:53 AM 30.0 °F 27.0 °F 88% 30.25 in 4.0 mi Calm Calm - N/A   Clear
8:53 AM 34.0 °F 30.9 °F 89% 30.27 in 5.0 mi Calm Calm - N/A   Clear
9:53 AM 39.9 °F 34.0 °F 79% 30.27 in 7.0 mi Calm Calm - N/A   Clear
10:53 AM 48.9 °F 36.0 °F 61% 30.26 in 9.0 mi Calm Calm - N/A   Clear
11:53 AM 55.0 °F 36.0 °F 49% 30.24 in 10.0 mi Calm Calm - N/A   Clear
12:53 PM 57.9 °F 30.0 °F 35% 30.22 in 10.0 mi Calm Calm - N/A   Clear
1:53 PM 59.0 °F 32.0 °F 36% 30.22 in 10.0 mi Calm Calm - N/A   Clear
2:53 PM 60.1 °F 30.9 °F 33% 30.22 in 10.0 mi NNW 4.6 mph - N/A   Clear
3:53 PM 59.0 °F 30.9 °F 35% 30.22 in 10.0 mi Calm Calm - N/A   Clear
4:53 PM 55.9 °F 30.9 °F 39% 30.22 in 10.0 mi Calm Calm - N/A   Clear
5:53 PM 46.0 °F 33.1 °F 61% 30.24 in 10.0 mi Calm Calm - N/A   Clear
6:53 PM 42.1 °F 32.0 °F 67% 30.24 in 10.0 mi Calm Calm - N/A   Clear
7:53 PM 39.9 °F 32.0 °F 73% 30.25 in 10.0 mi Calm Calm - N/A   Clear
8:53 PM 37.0 °F 30.0 °F 76% 30.25 in 10.0 mi Calm Calm - N/A   Clear
9:53 PM 36.0 °F 30.0 °F 79% 30.26 in 10.0 mi Calm Calm - N/A   Clear
10:53 PM 34.0 °F 28.9 °F 82% 30.24 in 10.0 mi Calm Calm - N/A   Clear
11:53 PM 33.1 °F 28.0 °F 82% 30.25 in 8.0 mi Calm Calm - N/A   Clear